SBIRS GEO-4 (USA 273)

Last updated on Sat Aug 22 2026 00:02:59 GMT+0000 (Coordinated Universal Time)

1 41937U 17004A 26233.34360444 .00000125 00000+0 00000+0 0 9996 2 41937 2.3681 44.8212 0002702 88.5128 342.0807 1.00269251 35255
UTC large
Height (km)
Speed (km/s)
/
Latitude / Longitude
Inclination (degrees)
Orbital Period (minutes)
Azimuth
Elevation
Range (km)
Doppler Factor

Next 0 passes for location: London (51.5072 / 0.1276)

No passes found over London.
SBIRS GEO-4 (USA 273)